DW6386 Weather Reports


time (UTC)temp
F
wind
direction
speed
knots
gust
knots
rain 1hr
in
rain 24hr
in
rain mn
in
humidity
%
barometer
mb
20260905151536 84 198 0.0 0.0 0.00 0.00 0.00 77 1012.5
20260905150041 83 198 0.0 0.0 0.00 0.00 0.00 80 1012.6
20260905144535 82 203 0.0 0.0 0.00 0.00 0.00 84 1012.7
20260905143028 81 207 0.0 0.9 0.00 0.00 0.00 85 1012.8
20260905141525 81 207 0.0 0.0 0.00 0.00 0.00 88 1012.8
20260905140022 80 196 0.0 0.0 0.00 0.00 0.00 91 1012.7
20260905134522 78 196 0.0 0.0 0.00 0.00 0.00 95 1012.7
20260905133015 77 198 0.0 0.0 0.00 0.00 0.00 96 1013.0
20260905131529 76 113 0.0 0.0 0.00 0.00 0.00 97 1013.1
20260905130011 75 113 0.0 0.0 0.00 0.00 0.00 98 1013.1
20260905124511 75 113 0.0 0.0 0.00 0.00 0.00 98 1013.2
20260905123009 74 113 0.0 0.0 0.00 0.00 0.00 98 1013.1
20260905121508 73 113 0.0 0.0 0.00 0.00 0.00 98 1012.9
20260905120019 72 113 0.0 0.0 0.00 0.00 0.00 98 1012.8
20260905114513 72 113 0.0 0.0 0.00 0.00 0.00 98 1012.7
20260905113003 71 113 0.0 0.0 0.00 0.00 0.00 98 1012.5
20260905111501 72 113 0.0 0.0 0.00 0.00 0.00 97 1012.2
20260905110001 72 113 0.0 0.0 0.00 0.00 0.00 98 1012.1
20260905104619 72 113 0.0 0.0 0.00 0.00 0.00 98 1012.1
20260905103100 72 113 0.0 0.0 0.00 0.00 0.00 97 1012.0
20260905101558 72 113 0.0 0.0 0.00 0.00 0.00 97 1011.8
20260905100058 72 113 0.0 0.0 0.00 0.00 0.00 97 1011.7
20260905094715 72 113 0.0 0.0 0.00 0.00 0.00 97 1011.6
20260905093108 72 113 0.0 0.0 0.00 0.00 0.00 97 1011.4
20260905091600 73 113 0.0 0.0 0.00 0.00 0.00 97 1011.3
20260905090052 73 113 0.0 0.0 0.00 0.00 0.00 96 1011.4
20260905084602 73 113 0.0 0.0 0.00 0.00 0.00 97 1011.6
20260905083050 73 113 0.0 0.0 0.00 0.00 0.00 97 1011.7
20260905081549 73 113 0.0 0.0 0.00 0.00 0.00 96 1011.7
20260905074558 73 113 0.0 0.0 0.00 0.00 0.00 95 1011.8
20260905073052 73 113 0.0 0.0 0.00 0.00 0.00 96 1011.9
20260905071549 73 113 0.0 0.0 0.00 0.00 0.00 96 1011.9
20260905070044 73 113 0.0 0.0 0.00 0.00 0.00 95 1011.9
20260905064543 73 113 0.0 0.0 0.00 0.00 0.00 95 1012.0
20260905063042 74 113 0.0 0.0 0.00 0.00 0.00 94 1012.1
20260905061555 74 113 0.0 0.0 0.00 0.00 0.00 94 1012.0
20260905060058 74 113 0.0 0.0 0.00 0.00 0.00 93 1012.0
20260905054552 74 113 0.0 0.0 0.00 0.00 0.00 93 1012.1
20260905053036 75 113 0.0 0.0 0.00 0.00 0.00 93 1012.2
20260905051537 75 113 0.0 0.0 0.00 0.00 0.00 93 1012.2
20260905050030 75 113 0.0 0.0 0.00 0.00 0.00 92 1012.2
20260905044528 75 103 0.0 0.0 0.00 0.00 0.00 91 1012.2
20260905043027 75 103 0.0 0.0 0.00 0.00 0.00 91 1012.1
20260905041526 75 103 0.0 0.0 0.00 0.00 0.00 91 1012.1
20260905040022 76 103 0.0 0.0 0.00 0.00 0.00 91 1012.2
20260905034523 77 95 0.0 0.0 0.00 0.00 0.00 89 1012.2
20260905033021 77 94 0.0 0.0 0.00 0.00 0.00 88 1012.1
20260905031520 77 94 0.0 0.0 0.00 0.00 0.00 89 1012.2
20260905030020 77 94 0.0 0.0 0.00 0.00 0.00 87 1012.6
20260905024538 78 94 0.0 0.0 0.00 0.00 0.00 86 1012.6
20260905023022 78 94 0.0 0.0 0.00 0.00 0.00 87 1012.8
20260905021518 79 94 0.0 0.0 0.00 0.00 0.00 86 1012.8
20260905020017 79 94 0.0 0.0 0.00 0.00 0.00 85 1012.8
20260905014516 80 94 0.0 0.0 0.00 0.00 0.00 86 1012.8
20260905013018 80 94 0.0 0.0 0.00 0.00 0.00 84 1012.6
20260905011515 80 94 0.0 0.0 0.00 0.00 0.00 83 1012.6
20260905010014 81 94 0.0 0.0 0.00 0.00 0.00 81 1012.4
20260905004514 82 94 0.0 0.0 0.00 0.00 0.00 78 1012.4
20260905003015 83 94 0.0 0.0 0.00 0.00 0.00 77 1012.3
20260905001513 84 94 0.0 0.0 0.00 0.00 0.00 74 1012.2
20260905000013 85 94 0.0 0.0 0.00 0.00 0.00 75 1012.1
20260904234514 87 94 0.0 0.0 0.00 0.00 0.00 72 1012.1
20260904233012 88 94 0.0 0.0 0.00 0.00 0.00 67 1012.1
20260904231511 90 94 0.0 0.0 0.00 0.00 0.00 65 1012.0
20260904230011 91 92 0.0 0.9 0.00 0.00 0.00 62 1011.9
20260904224510 92 84 0.0 0.9 0.00 0.00 0.00 59 1011.7
20260904223010 92 91 0.0 0.0 0.00 0.00 0.00 60 1011.5
20260904221509 93 85 0.0 0.9 0.00 0.00 0.00 58 1011.5
20260904220009 93 79 0.0 1.7 0.00 0.00 0.00 56 1011.5
20260904214507 93 47 0.0 2.6 0.00 0.00 0.00 55 1011.6
20260904213007 94 180 0.0 3.5 0.00 0.00 0.00 53 1011.6
20260904211505 95 265 0.0 1.7 0.00 0.00 0.00 53 1011.8
20260904210004 95 99 0.0 3.5 0.00 0.00 0.00 52 1011.9
20260904204503 96 278 0.0 5.2 0.00 0.00 0.00 51 1012.0
20260904203007 97 94 0.9 4.3 0.00 0.00 0.00 47 1012.2
20260904201626 97 59 0.0 2.6 0.00 0.00 0.00 50 1012.4
20260904200117 97 236 0.0 3.5 0.00 0.00 0.00 50 1012.6
20260904194556 97 148 0.0 2.6 0.00 0.00 0.00 48 1012.9
20260904193053 98 278 0.0 2.6 0.00 0.00 0.00 49 1013.3
20260904191550 98 340 0.9 2.6 0.00 0.00 0.00 51 1013.5
20260904190048 97 34 0.0 0.9 0.00 0.00 0.00 52 1013.6
20260904184547 93 202 0.0 1.7 0.00 0.00 0.00 60 1013.7
20260904183047 89 148 0.0 0.9 0.00 0.00 0.00 61 1014.1
20260904181544 90 151 0.0 0.0 0.00 0.00 0.00 59 1014.3
20260904180045 93 131 0.9 4.3 0.00 0.00 0.00 58 1014.5
20260904174547 95 99 0.9 5.2 0.00 0.00 0.00 57 1014.6
20260904173040 96 78 0.9 3.5 0.00 0.00 0.00 59 1014.6
20260904171605 94 226 1.7 4.3 0.00 0.00 0.00 61 1014.7
20260904170033 93 297 0.9 5.2 0.00 0.00 0.00 62 1014.8
20260904164531 93 252 1.7 4.3 0.00 0.00 0.00 62 1015.0
20260904163045 93 181 0.0 3.5 0.00 0.00 0.00 63 1015.3
20260904161528 93 65 0.0 1.7 0.00 0.00 0.00 63 1015.3
20260904160025 91 250 0.0 2.6 0.00 0.00 0.00 65 1015.5
20260904154521 92 240 0.0 2.6 0.00 0.00 0.00 64 1015.6
20260904153025 91 146 0.0 2.6 0.00 0.00 0.00 66 1015.5